Location: Mexico
(19.4000°N, 99.1500°W)
Time: 16:31:52
(UTC-06:00)

ISS - Pass Details

Date: 15 July 2019
Orbit: 409 x 418 km, 51.6° (Epoch: 22 July)

Event Time Altitude Azimuth Distance (km) Brightness Sun altitude
Rises 20:19:50 0° 211° (SSW) 2,342 0.1 -13.9°
Reaches altitude 10° 20:21:56 10° 207° (SSW) 1,481 -1.0 -14.3°
Maximum altitude 20:25:12 57° 127° (SE) 490 -3.8 -15.0°
Drops below altitude 10° 20:28:28 10° 48° (NE) 1,480 -1.2 -15.7°
Sets 20:30:35 0° 44° (NE) 2,342 -0.1 -16.1°
